Regional Weather Roundup
Issued by NWS

Home | Current Version | Previous Version | Text Only | Print | Product List | Glossary On
Versions: 1 2 3 4 5 6 7 8 9 10 11 12 13 14 15 16 17 18 19 20 21 22 23 24 25 26 27 28 29 30 31 32 33 34 35 36 37 38 39 40 41 42 43 44 45 46 47 48 49 50
000
ASUS44 KJAN 050310
RWRMS

MISSISSIPPI HOURLY WEATHER ROUNDUP
NATIONAL WEATHER SERVICE JACKSON MS
900 PM CST SUN DEC 04 2016

NOTE: "FAIR: INDICATES FEW OR NO CLOUDS BELOW 12,000 FEET WITH NO
SIGNIFICANT WEATHER AND/OR OBSTRUCTIONS TO VISIBILITY.

MSZ001>002-007>008-010>013-018>021-025>028-034>036-050400-
NORTHWEST MISSISSIPPI

CITY           SKY/WX    TMP DP  RH WIND       PRES   REMARKS
CLEVELAND      FAIR      46  46 100 N8        30.04F
GREENWOOD      CLOUDY    48  44  86 NE7       30.03F
GREENVILLE     MOCLDY    47  42  83 NE9       30.04S
OXFORD         CLOUDY    45  41  87 NW6       30.07R
WINONA         CLOUDY    47  46  99 N5        30.03F
$$

MSZ003>006-009-014>017-022>024-029>033-037>039-050400-
NORTHEAST MISSISSIPPI

CITY           SKY/WX    TMP DP  RH WIND       PRES   REMARKS
COLUMBUS AFB   CLOUDY    50  48  93 N6        30.03S
GOLDN TRIANGLE CLOUDY    48  45  87 N6        29.99S
STARKVILLE     CLOUDY    48  46  93 CALM      30.05S
TUPELO         CLOUDY    49  46  90 CALM      30.05R
$$

MSZ040-058-050400-
CENTRAL MISSISSIPPI

CITY           SKY/WX    TMP DP  RH WIND       PRES   REMARKS
JACKSON INTL   CLOUDY    50  48  93 N6        30.00F
JACKSON HAWKNS CLOUDY    49  46  90 VRB7      30.00F
MADISON        CLOUDY    46  45  93 CALM      30.00F
MERIDIAN KEY   LGT RAIN  54  51  90 N8        30.01R
MERIDIAN NAS   LGT RAIN  53  49  86 N8        30.02S
VICKSBURG VKS  CLOUDY    50  46  87 NE5       30.01S
$$

MSZ059>079-050400-
SOUTH MISSISSIPPI

CITY           SKY/WX    TMP DP  RH WIND       PRES   REMARKS
BROOKHAVEN     CLOUDY   N/A N/A N/A CALM      30.00S
COLUMBIA       LGT RAIN  55  54  94 NW8G14    30.04R
HATTIESBURG    LGT RAIN  57  55  93 E5        29.96F
LAUREL         CLOUDY    55  55 100 E5        29.97F
MCCOMB         LGT RAIN  52  50  93 NE3       29.99S
NATCHEZ        CLOUDY    48  45  87 N7        30.01R
PINE BELT      CLOUDY    55  52  88 N3        29.98F
$$

MSZ080>082-050400-
COASTAL MISSISSIPPI

CITY           SKY/WX    TMP DP  RH WIND       PRES   REMARKS
BILOXI         LGT RAIN  63  63 100 NW5       29.99R
PASCAGOULA     LGT RAIN  63  60  90 N3        29.98R FOG
GULFPORT       LGT RAIN  62  61  96 W5        29.99R
$$

LAZ007>009-015>016-023>026-050400-
NORTHEAST LOUISIANA

CITY           SKY/WX    TMP DP  RH WIND       PRES   REMARKS
BASTROP        CLOUDY    47  46  98 NE3       30.04S
TALLULAH/VBURG CLOUDY    48  46  93 N8        30.02R
VIDALIA        CLOUDY    49  47  93 N8        30.05S
$$



USA.gov is the U.S. government's official web portal to all federal, state and local government web resources and services.